Regional Weather Roundup
Issued by NWS

Home | Current Version | Previous Version | Graphics & Text | Print | Product List | Glossary On
Versions: 1 2 3 4 5 6 7 8 9 10 11 12 13 14 15 16 17 18 19 20 21 22 23 24 25 26 27 28 29 30 31 32 33 34 35 36 37 38 39 40 41 42 43 44 45 46 47 48 49 50
000
ASUS43 KMKX 111810
RWRWI

WISCONSIN REGIONAL WEATHER ROUNDUP
NATIONAL WEATHER SERVICE MILWAUKEE/SULLIVAN WI
1200 PM CST MON DEC 11 2017

NOTE: "FAIR" INDICATES FEW OR NO CLOUDS BELOW 12,000 FEET WITH NO
SIGNIFICANT WEATHER AND/OR OBSTRUCTIONS TO VISIBILITY.

WIZ001-002-006>008-014>016-023>028-111900-
NORTHWEST WISCONSIN

CITY           SKY/WX    TMP DP  RH WIND       PRES   REMARKS
SUPERIOR ARPT  CLOUDY    29  24  82 N9        29.82R WCI  20
6HR MIN TEMP:  21; 6HR MAX TEMP:  29;

ASHLAND        CLOUDY    25  21  85 W6        29.78R WCI  18
6HR MIN TEMP:  19; 6HR MAX TEMP:  25; 6HR PCP:  0.02;

HAYWARD        CLOUDY    27  22  81 VRB3      29.76R
6HR MIN TEMP:  21; 6HR MAX TEMP:  27; 6HR PCP: TRACE;

SIREN          CLOUDY    30  26  85 N13G21    29.80R WCI  20
6HR MIN TEMP:  25; 6HR MAX TEMP:  30;

CUMBERLAND     LGT SNOW  28  27  93 NW9       29.75R WCI  20
RICE LAKE      CLOUDY    29  26  88 CALM      29.76S FOG
6HR MIN TEMP:  24; 6HR MAX TEMP:  29;

CHETEK         CLOUDY    28  25  87 NW3       29.75R
6HR MIN TEMP:  23; 6HR MAX TEMP:  28;

LADYSMITH      LGT SNOW  27  24  91 CALM      29.75S
6HR MIN TEMP:  23; 6HR MAX TEMP:  27;

EAU CLAIRE     CLOUDY    28  24  85 NW5       29.75R FOG     WCI  23
6HR MIN TEMP:  24; 6HR MAX TEMP:  28; 6HR PCP: TRACE;

MENOMONIE      CLOUDY    30  26  86 CALM      29.76R
6HR MIN TEMP:  25; 6HR MAX TEMP:  30;

NEW RICHMOND   CLOUDY    31  28  87 NW14      29.78R WCI  21
6HR MIN TEMP:  26; 6HR MAX TEMP:  31;

OSCEOLA        FLURRIES  32  32 100 NW14G20   29.82R WCI  22
6HR MIN TEMP:  26; 6HR MAX TEMP:  32;

$$

WIZ003>005-009-010-017-018-111900-
NORTH CENTRAL WISCONSIN

CITY           SKY/WX    TMP DP  RH WIND       PRES   REMARKS
MANITOWISH WTR CLOUDY    22  22 100 SW5       29.70S WCI  15
6HR MIN TEMP:  15; 6HR MAX TEMP:  22;

ARBOR VITAE    CLOUDY    23  21  93 SW3       29.69F
6HR MIN TEMP:  18; 6HR MAX TEMP:  23; 6HR PCP:  0.01;

WOODRUFF       CLOUDY    23  21  93 SW3       29.69F
6HR MIN TEMP:  18; 6HR MAX TEMP:  23; 6HR PCP:  0.01;

RHINELANDER    CLOUDY    22  21  96 SW6       29.70F FOG     WCI  14
6HR MIN TEMP:  17; 6HR MAX TEMP:  22; 6HR PCP:  0.01;

EAGLE RIVER    LGT SNOW  21  21  98 W6        29.69F WCI  14
6HR MIN TEMP:  16; 6HR MAX TEMP:  21;

LAND O LAKES   CLOUDY    22  19  89 SW5       29.70F WCI  16
6HR MIN TEMP:  16; 6HR MAX TEMP:  22;

PHILLIPS       CLOUDY    23  22  98 CALM      29.71S FOG
6HR MIN TEMP:  18; 6HR MAX TEMP:  23;

TOMAHAWK       CLOUDY    22  20  93 CALM      29.71F FOG
6HR MIN TEMP:  18; 6HR MAX TEMP:  22;

MEDFORD        CLOUDY    24  21  90 SW3       29.70F
6HR MIN TEMP:  19; 6HR MAX TEMP:  24;

MERRILL        CLOUDY    24  22  93 CALM      29.73S FOG
6HR MIN TEMP:  19; 6HR MAX TEMP:  24;

$$

WIZ029-030-035-036-043>047-111900-
CENTRAL WISCONSIN

CITY           SKY/WX    TMP DP  RH WIND       PRES   REMARKS
WAUSAU         CLOUDY    23  22  96 CALM      29.71F FOG
6HR MIN TEMP:  20; 6HR MAX TEMP:  24; 6HR PCP: TRACE;

MOSINEE        CLOUDY    25  25 100 CALM      29.73F FOG
MARSHFIELD     CLOUDY    27  23  85 NW3       29.70S
6HR MIN TEMP:  21; 6HR MAX TEMP:  27; 6HR PCP: TRACE;

STEVENS POINT  CLOUDY    24  23  96 S6        29.71F WCI  17
6HR MIN TEMP:  19; 6HR MAX TEMP:  24;

WAUPACA        CLOUDY    29  24  82 S3        29.75S
6HR MIN TEMP:  24; 6HR MAX TEMP:  29;

WAUTOMA        CLOUDY    30  23  75 S5        29.73F WCI  25
6HR MIN TEMP:  21; 6HR MAX TEMP:  30; 6HR PCP: TRACE;

WISC RAPIDS    MOSUNNY   28  24  85 W5        29.73F WCI  23
6HR MIN TEMP:  22; 6HR MAX TEMP:  28; 6HR PCP: TRACE;

CAMP DOUGLAS   CLOUDY    30  23  74 CALM      29.72F
$$

WIZ011>013-019>022-031-037>040-048>050-111900-
NORTHEAST WISCONSIN

CITY           SKY/WX    TMP DP  RH WIND       PRES   REMARKS
ANTIGO         CLOUDY    20  20  98 CALM      29.71S
6HR MIN TEMP:  17; 6HR MAX TEMP:  20;

SHAWANO        CLOUDY    27  24  89 CALM      29.75F
6HR MIN TEMP:  22; 6HR MAX TEMP:  27;

OCONTO         CLOUDY    25  23  92 SW3       29.76F
6HR MIN TEMP:  21; 6HR MAX TEMP:  25;

STURGEON BAY   MIX PCPN  25  23  92 S8        29.76F FOG     WCI  16
6HR MIN TEMP:  20; 6HR MAX TEMP:  25; 6HR PCP: TRACE;

GREEN BAY      CLOUDY    26  23  88 S6        29.75F WCI  19
6HR MIN TEMP:  21; 6HR MAX TEMP:  26; 6HR PCP:  0.02;

MANITOWOC      CLOUDY    27  23  85 S7        29.76F WCI  19
6HR MIN TEMP:  22; 6HR MAX TEMP:  27; 6HR PCP: TRACE;

APPLETON       CLOUDY    27  21  80 S6        29.72F WCI  20
CLINTONVILLE   CLOUDY    25  21  86 CALM      29.75
OSHKOSH        CLOUDY    29  24  82 S7        29.73F WCI  22
6HR MIN TEMP:  22; 6HR MAX TEMP:  29; 6HR PCP: TRACE;

$$

WIZ032>034-041-042-053>061-111900-
SOUTHWEST WISCONSIN

CITY           SKY/WX    TMP DP  RH WIND       PRES   REMARKS
LA CROSSE      LGT SNOW  29  26  89 CALM      29.75R FOG
6HR MIN TEMP:  26; 6HR MAX TEMP:  29; 6HR PCP:  0.08;

SPARTA         CLOUDY    29  26  87 CALM      29.74R
6HR MIN TEMP:  25; 6HR MAX TEMP:  29;

VIROQUA        CLOUDY    28  28 100 CALM      29.70S VSB 1/2
6HR MIN TEMP:  23; 6HR MAX TEMP:  28; 6HR PCP:  0.01;

BOSCOBEL       CLOUDY    32  25  75 NE3       29.73F
6HR MIN TEMP:  24; 6HR MAX TEMP:  32;

PRAIRIE DU CHI CLOUDY    32  24  71 CALM      29.73S
6HR MIN TEMP:  28; 6HR MAX TEMP:  32;

PLATTEVILLE    MOSUNNY   33  28  81 CALM      29.70S
6HR MIN TEMP:  25; 6HR MAX TEMP:  33;

$$

WIZ056-057-062-063-064-067-068-111900-
SOUTH CENTRAL WISCONSIN

CITY           SKY/WX    TMP DP  RH WIND       PRES   REMARKS
REEDSBURG      PTSUNNY   30  24  80 CALM      29.71F
6HR MIN TEMP:  23; 6HR MAX TEMP:  30;

BARABOO/DELLS  CLOUDY    30  24  76 CALM      29.71F
6HR MIN TEMP:  23; 6HR MAX TEMP:  30;

LONE ROCK      CLOUDY    31  26  82 CALM      29.72F
6HR MIN TEMP:  23; 6HR MAX TEMP:  31;

MINERAL POINT  MOSUNNY   32  30  93 S3        29.69S
MADISON        CLOUDY    31  25  78 S9        29.71F WCI  23
6HR MIN TEMP:  23; 6HR MAX TEMP:  31; 6HR PCP: TRACE;

MIDDLETON      CLOUDY    33  27  80 S3        29.70F
6HR MIN TEMP:  26; 6HR MAX TEMP:  33;

WATERTOWN      CLOUDY    31  26  81 S5        29.72F WCI  27
6HR MIN TEMP:  22; 6HR MAX TEMP:  31;

MONROE         CLOUDY    32  27  80 E7        29.68F WCI  26
JANESVILLE     CLOUDY    36  27  69 S6        29.71F WCI  31
$$

WIZ051-052-058>065-066-070>072-111900-
SOUTHEAST WISCONSIN

CITY           SKY/WX    TMP DP  RH WIND       PRES   REMARKS
MILWAUKEE      CLOUDY    32  25  75 S8        29.75F WCI  25
6HR MIN TEMP:  24; 6HR MAX TEMP:  32; 6HR PCP:  0.01;

WAUKESHA       CLOUDY    28  21  74 S9        29.75F WCI  20
MILWAUKEE/TIMM CLOUDY    30  21  69 S8        29.76F WCI  23
RACINE         CLOUDY    32  26  78 S9        29.76F WCI  24
6HR MIN TEMP:  24; 6HR MAX TEMP:  33; 6HR PCP:  0.01;

BURLINGTON     CLOUDY    40  37  87 S5        29.74F
6HR MIN TEMP:  31; 6HR MAX TEMP:  40;

KENOSHA        CLOUDY    33  25  72 S7        29.75F WCI  27
6HR MIN TEMP:  25; 6HR MAX TEMP:  33; 6HR PCP: TRACE;

FOND DU LAC    CLOUDY    31  23  72 S10       29.73F WCI  22
6HR MIN TEMP:  23; 6HR MAX TEMP:  31; 6HR PCP:  0.01;

SHEBOYGAN      CLOUDY    28  24  85 S9        29.75F WCI  19
6HR MIN TEMP:  22; 6HR MAX TEMP:  28; 6HR PCP: TRACE;

WEST BEND      CLOUDY    30  25  80 SE5       29.73F WCI  25
JUNEAU         CLOUDY    29  24  81 SE5       29.73F WCI  24
6HR MIN TEMP:  21; 6HR MAX TEMP:  29;

$$

LSZ147-162-111900-
LAKE SUPERIOR

STATION/POSITION TIME  TEMP    WIND        PRES    WAVE
                       AIR SEA DIR/SP/G            HT/PER
                 (UTC) (F)     (DEG/KT/KT) (MB)    (FT/S)
DEVILS ISLAND    1800   29     340/ 21/ 23 1009.2R
SAXON HARBOR     1730   26                 1007.8S
$$

LMZ867-665-643>646-111900-
LAKE MICHIGAN

STATION/POSITION TIME  TEMP    WIND        PRES    WAVE
                       AIR SEA DIR/SP/G            HT/PER
                 (UTC) (F)     (DEG/KT/KT) (MB)    (FT/S)
NORTHPORT PIER   1740



USA.gov is the U.S. government's official web portal to all federal, state and local government web resources and services.